User: anonymous   Login
Location: Unspecified
(0.0000°N, 0.0000°E)
Time: 01:25:18
(UTC+01:00)
Language:

ARIANE 5 R/B - Orbit

View from above orbital plane
View from above orbital plane
View from above satellite
View from above satellite

Ground track
Ground track

The orbit data is extracted from the following two-line orbital elements,

1 28379U 04027B   17022.15731549  .00000047  00000-0 -63222-3 0  9999
2 28379   7.2560  16.9482 7285685 336.4707 163.2498  2.07926732 95108
Epoch (UTC): 22 January 2017 03:46:32
Eccentricity: 0.7285685
inclination: 7.2560°
perigee height: 660 km
apogee height: 38442 km
right ascension of ascending node: 16.9482°
argument of perigee: 336.4707°
revolutions per day: 2.07926732
mean anomaly at epoch: 163.2498°
orbit number at epoch: 9510

The dashed part of the orbit path shows where the satellite is in the earth's shadow,  

DLR